AirNav   Air Wisconsin Up To $57,000 Bonus
 
 1099 users online  

CO12 Van Aire Airport
Brighton, Colorado, USA

GOING TO BRIGHTON?


FAA INFORMATION EFFECTIVE 14 JULY 2022

Location

FAA Identifier: CO12
Lat/Long: 39-59-00.1700N 104-42-16.1200W
39-59.002833N 104-42.268667W
39.9833806,-104.7044778
(estimated)
Elevation: 5055 ft. / 1541 m (estimated)
Variation: 11E (1985)
From city: 5 miles E of BRIGHTON, CO
Time zone: UTC -6 (UTC -7 during Standard Time)
Zip code: 80601

Airport Operations

Airport use: Private use. Permission required prior to landing
Activation date: 06/1970
Control tower: no
ARTCC: DENVER CENTER
FSS: DENVER FLIGHT SERVICE STATION
Attendance: UNATNDD
Wind indicator: yes
Segmented circle: yes
Lights: ACTVT MIRL RY 12/30 - 122.9.

Airport Communications

WX ASOS at DEN (7 nm S): PHONE 303-342-1920
WX AWOS-3 at CFO (14 nm SE): 119.025 (303-261-9104)
WX AWOS-3 at EIK (16 nm W): 133.825 (303-604-4339)
WX AWOS-3 at BJC (20 nm W): PHONE 720-887-8067

Nearby radio navigation aids

VOR radial/distance  VOR name  Freq  Var
DVVr317/6.5MILE HIGH VORTAC114.7008E
DENr341/10.4DENVER VOR/DME117.9008E
FQFr337/18.0FALCON VORTAC116.3011E
BJCr067/20.4JEFFCO VOR/DME115.4011E
GLLr180/32.0GILL VOR/DME114.2013E

Airport Services

Fuel available: 100LL
Airframe service: NONE
Powerplant service: NONE

Runway Information

Runway 12/30

Dimensions: 3700 x 50 ft. / 1128 x 15 m
Surface: asphalt
Runway edge lights: medium intensity
RUNWAY 12  RUNWAY 30
Traffic pattern: leftright
Displaced threshold: 331 ft.294 ft.

Airport Ownership and Management from official FAA records

Ownership: Privately-owned
Owner: VAN AIRE SKYPORT CORP
PO BOX 55
BRIGHTON, CO 80601
Manager: BRANDON JEWETT
PO BOX 55
BRIGHTON, CO 80601
Phone 303-521-3238

Airport Operational Statistics

Aircraft based on the field: 89
Single engine airplanes: 85
Multi engine airplanes: 4
    

Additional Remarks

ARPT IN RESIDENTIAL SUBDIVISION. ROADS IN CLOSE PROXIMITY BOTH ENDS OF RWY.
PRIM USE OF RWY IS FOR HOME OWNERS AT ARPT. PPR FOR USE. CTC VANAIRESKYPORT.ORG FOR WAIVER AND INSTRUCTIONS.
RWY 12/30 SINGLE LGT VASI BOTH RWY APCHS.
TPA 5800 FT.
FOR CD CTC DENVER APCH AT 303-342-1916.

Instrument Procedures

There are no published instrument procedures at CO12.

Some nearby airports with instrument procedures:

KDEN - Denver International Airport (7 nm S)
KCFO - Colorado Air and Space Port Airport (14 nm SE)
KEIK - Erie Municipal Airport (16 nm W)
KBKF - Buckley Space Force Base (17 nm S)
KBJC - Rocky Mountain Metro Airport (20 nm W)
 
Loc | Ops | Rwys | IFR | FBO | Links
Com | Nav | Svcs | Stats | Notes

AirBoss

 
Area around CO12 (Van Aire Airport)
 
Road maps at: MapQuest Bing Google
 
Aerial photo
WARNING: Photo may not be current or correct
Aerial photo of CO12 (Van Aire Airport)
Photo by Brandon Jewett.
Taken in the Summer of 2008

Do you have a better or more recent aerial photo of Van Aire Airport that you would like to share? If so, please send us your photo.

 
Sectional chart

 
Airport distance calculator
Flying to Van Aire Airport? Find the distance to fly.

From to CO12

Sunrise and sunset
Times for 07-Aug-2022
 Local
(UTC-6)
 Zulu
(UTC)
Morning civil twilight05:3411:34
Sunrise06:0412:04
Sunset20:0502:05
Evening civil twilight20:3502:35

Current date and time
Zulu (UTC)  07-Aug-2022 15:41:15
Local (UTC-6)  07-Aug-2022 09:41:15
 
METAR
KDEN 
9nm S 
071453Z 34003KT 10SM FEW090 FEW120 BKN150 BKN220 19/16 A3022 RMK AO2 SLP156 T01940161 51025 $
KCFO 
14nm SE 
071510Z 00000KT 8SM SCT006 BKN120 19/17 A3024 BR
KEIK 
16nm W 
071515Z AUTO 06003KT 10SM CLR 23/16 A3021 RMK AO2 T02250155 PWINO
KBKF 
16nm S 
071458Z 24002KT 10SM FEW080 BKN140 BKN220 19/16 A3024 RMK AO2A SLP166 T01940162 51024
KBJC 
19nm W 
071447Z 03005KT 10SM SCT100 22/15 A3024
TAF
KDEN 
9nm S 
071135Z 0712/0818 35007KT P6SM SCT140 SCT220 FM071700 03010KT P6SM SCT140 FM071900 08013KT P6SM FEW080 BKN140 FM072200 VRB20G35KT 3SM +TSRA BKN060CB OVC120 FM080000 13011KT P6SM VCTS BKN050CB OVC100 TEMPO 0800/0804 VRB15G25KT 5SM TSRA OVC040CB FM080400 13010KT P6SM SCT060 BKN100 FM081200 15009KT P6SM SCT008 SCT060
KBKF 
16nm S 
070900Z 0709/0815 17006KT 9999 FEW100 510013 QNH3010INS BECMG 0715/0716 33009KT 8000 BR BKN010 510023 QNH3023INS BECMG 0719/0720 04009KT 9999 NSW FEW100 510023 QNH3023INS BECMG 0723/0724 07015KT 9000 -SHRA FEW035 520023 QNH3024INS TEMPO 0723/0802 06020G30KT 9000 -TSRA FEW035CB SCT055 BKN075 BECMG 0802/0803 VRB06KT 9000 -SHRA SCT035 510033 QNH3031INS BECMG 0804/0805 VRB06KT 8000 BR FEW020 510033 QNH3033INS BECMG 0806/0807 VRB06KT 8000 BR FEW020 510033 QNH3033INS BECMG 0811/0812 VRB06KT 8000 BR FE
KBJC 
19nm W 
071135Z 0712/0812 33011KT P6SM BKN140 FM071600 03010KT P6SM SCT120 FM071800 08010KT P6SM FEW080 BKN140 FM072100 10011KT P6SM VCTS SCT060CB BKN120 FM072200 VRB20G35KT 3SM +TSRA BKN050CB OVC100 FM080000 13011KT P6SM VCTS BKN060CB OVC120 TEMPO 0800/0804 VRB15G25KT 5SM TSRA OVC040CB FM080400 VRB06KT P6SM SCT060 BKN100
NOTAMs
Click for the latest NOTAMs
NOTAMs are issued by the DoD/FAA and will open in a separate window not controlled by AirNav.

 

 
 

Would you like to see your business listed on this page?

 If your business provides an interesting product or service to pilots, flight crews, aircraft, or users of the Van Aire Airport, you should consider listing it here.  To start the listing process, click on the button below
 
Add a business
 

Other Pages about Van Aire Airport

www.ahico.com/...
 
Update a link
 
Copyright © AirNav, LLC. All rights reserved. Privacy Policy  Contact